Location: Banska Bystrica
(48.7330°N, 19.1500°E)
Time: 17:00:21
(UTC+02:00)

ISS - Visible Passes

Search period start: 09 May 2021 00:00
Search period end: 19 May 2021 00:00
Orbit: 418 x 421 km, 51.6° (Epoch: 09 May)

Date Brightness Start Highest point End Pass type
(mag) Time Alt. Az. Time Alt. Az. Time Alt. Az.
09 May -3.5 02:03:26 68° N 02:03:26 68° N 02:06:41 10° ENE visible
09 May -2.9 03:37:04 10° WNW 03:40:23 50° N 03:43:42 10° E visible
10 May -2.1 01:17:26 29° ENE 01:17:26 29° ENE 01:19:14 10° ENE visible
10 May -2.9 02:50:22 16° WNW 02:52:52 49° N 02:56:10 10° ENE visible
10 May -3.6 04:26:31 10° WNW 04:29:54 81° NNE 04:33:18 10° ESE visible
11 May -1.0 00:31:25 13° ENE 00:31:25 13° ENE 00:31:47 10° ENE visible
11 May -3.0 02:04:21 36° WNW 02:05:21 51° N 02:08:40 10° ENE visible
11 May -3.3 03:39:04 10° WNW 03:42:26 65° NNE 03:45:49 10° E visible
12 May -3.0 01:18:16 52° NNE 01:18:16 52° NNE 01:21:12 10° ENE visible
12 May -3.0 02:51:37 10° WNW 02:54:57 55° N 02:58:17 10° E visible
13 May -2.0 00:32:06 26° ENE 00:32:06 26° ENE 00:33:43 10° ENE visible
13 May -2.9 02:05:01 17° WNW 02:07:26 50° N 02:10:45 10° E visible
13 May -3.9 03:41:01 10° WNW 03:44:23 76° SSW 03:47:46 10° ESE visible
13 May -1.2 23:45:44 14° ENE 23:45:44 14° ENE 23:46:16 10° ENE visible
14 May -2.8 01:18:37 30° WNW 01:19:54 49° N 01:23:13 10° ENE visible
14 May -3.7 02:53:34 10° WNW 02:56:58 81° NNE 03:00:20 10° ESE visible
14 May -2.0 21:17:10 10° S 21:19:08 15° SE 21:21:06 10° E visible
14 May -3.9 22:52:07 10° WSW 22:55:27 69° SSE 22:58:49 10° ENE visible
15 May -2.9 00:29:05 10° W 00:32:23 51° N 00:35:43 10° ENE visible
15 May -3.4 02:06:07 10° WNW 02:09:29 65° NNE 02:12:51 10° E visible
15 May -3.2 03:43:03 10° WNW 03:46:12 36° SSW 03:49:20 10° SE visible
15 May -3.6 22:04:49 10° SW 22:08:04 48° SSE 22:11:20 10° ENE visible
15 May -3.2 23:41:33 10° W 23:44:53 57° N 23:48:13 10° ENE visible
16 May -3.1 01:18:39 10° WNW 01:21:59 55° N 01:25:19 10° E visible
16 May -3.7 02:55:31 10° WNW 02:58:49 53° SSW 03:02:08 10° SE visible
16 May -3.1 21:17:40 10° SSW 21:20:43 32° SE 21:23:46 10° E visible
16 May -3.5 22:54:01 10° W 22:57:23 69° NNW 23:00:45 10° ENE visible
17 May -2.9 00:31:10 10° WNW 00:34:28 50° N 00:37:46 10° E visible
17 May -3.9 02:08:02 10° WNW 02:11:25 76° SSW 02:14:48 10° ESE visible
17 May -2.2 03:45:34 10° W 03:47:48 17° SW 03:50:01 10° S visible
17 May -3.8 22:06:32 10° WSW 22:09:54 87° NNW 22:13:18 10° ENE visible
17 May -2.8 23:43:38 10° WNW 23:46:56 49° N 23:50:00 11° ENE visible
18 May -2.8 01:20:35 10° WNW 01:22:54 40° WNW 01:22:54 40° WNW visible
18 May -3.8 21:19:07 10° WSW 21:22:28 70° SSE 21:25:50 10° ENE visible
18 May -2.9 22:56:05 10° W 22:59:24 51° N 23:02:42 10° ENE visible
